Total_Precipitation_Accumulation
1.29 1.59 2.10 2.78 3.27 3.44 3.49 3.66 3.64 3.66 3.66 3.57 3.59 3.76 3.89 3.92 3.88 3.97 4.00 3.84 3.74 3.80 3.98 3.98 3.93 3.67 3.47 3.35 3.30 3.20 2.97 2.70 2.50 2.44 2.31 2.06 1.84 1.81 1.75 1.68 1.68 1.57 1.53
1.21 1.62 2.02 2.44 2.84 3.20 3.34 3.49 3.49 3.70 3.96 4.30 4.73 4.96 5.06 4.99 4.85 4.78 4.67 4.50 4.36 4.32 4.30 4.32 4.12 3.85 3.68 3.47 3.23 3.13 2.96 2.72 2.57 2.50 2.53 2.22 2.02 1.75 1.57 1.61 1.59 1.52 1.50
1.28 1.61 1.81 2.12 2.44 2.80 3.05 3.22 3.47 3.94 4.45 5.06 5.82 6.17 5.93 5.53 5.34 5.05 4.96 4.75 4.50 4.43 4.43 4.21 3.99 3.76 3.55 3.36 3.13 3.04 2.95 2.70 2.56 2.52 2.64 2.42 2.18 1.93 1.77 1.60 1.50 1.49 1.50
1.34 1.48 1.66 1.89 2.12 2.50 2.90 3.26 3.66 4.24 4.90 5.44 5.93 6.22 6.12 5.84 5.57 5.13 4.75 4.38 4.06 3.87 3.77 3.67 3.45 3.30 3.15 2.96 2.77 2.73 2.70 2.58 2.40 2.34 2.20 2.11 2.02 1.97 1.83 1.66 1.49 1.45 1.48
1.21 1.31 1.45 1.65 1.96 2.36 2.80 3.24 3.64 4.25 4.83 5.34 5.72 5.96 5.99 5.84 5.47 4.81 4.21 3.83 3.51 3.27 3.00 2.78 2.68 2.67 2.59 2.39 2.20 2.15 2.12 2.09 2.03 2.01 1.91 1.84 1.79 1.76 1.70 1.65 1.57 1.50 1.40
1.19 1.18 1.31 1.50 1.89 2.20 2.64 3.00 3.32 4.01 4.73 5.27 5.64 5.87 5.87 5.59 4.97 4.31 3.78 3.45 3.18 2.92 2.66 2.49 2.30 2.21 2.11 1.96 1.79 1.68 1.67 1.70 1.72 1.74 1.72 1.61 1.56 1.56 1.59 1.52 1.45 1.42 1.36
1.11 1.13 1.30 1.37 1.68 2.03 2.36 2.68 3.04 3.51 4.03 4.46 4.71 4.89 4.95 4.71 4.31 3.94 3.51 3.16 2.93 2.66 2.37 2.07 1.86 1.74 1.66 1.59 1.53 1.42 1.36 1.41 1.45 1.44 1.43 1.43 1.37 1.37 1.44 1.48 1.44 1.39 1.32
1.15 1.16 1.30 1.35 1.43 1.69 2.00 2.37 2.66 2.96 3.22 3.41 3.58 3.56 3.56 3.53 3.39 3.06 2.67 2.37 2.12 1.97 1.79 1.59 1.47 1.39 1.36 1.32 1.30 1.22 1.15 1.19 1.29 1.32 1.37 1.38 1.35 1.40 1.44 1.49 1.54 1.58 1.46
1.14 1.20 1.30 1.33 1.38 1.51 1.74 1.98 2.10 2.29 2.35 2.30 2.32 2.38 2.40 2.40 2.33 2.20 1.94 1.63 1.40 1.29 1.21 1.16 1.15 1.04 1.05 1.09 1.11 1.09 1.08 1.11 1.11 1.14 1.19 1.23 1.27 1.33 1.34 1.39 1.49 1.67 1.65
1.15 1.21 1.29 1.42 1.45 1.46 1.64 1.77 1.73 1.71 1.75 1.80 1.78 1.72 1.73 1.75 1.75 1.69 1.55 1.36 1.17 1.04 0.95 0.92 0.89 0.80 0.76 0.81 0.89 0.92 0.97 1.05 1.03 0.99 1.00 1.01 1.07 1.25 1.36 1.43 1.53 1.66 1.72
1.15 1.26 1.28 1.29 1.28 1.28 1.31 1.36 1.40 1.42 1.42 1.40 1.42 1.39 1.33 1.29 1.30 1.34 1.30 1.17 1.05 0.92 0.83 0.76 0.75 0.73 0.67 0.67 0.74 0.75 0.78 0.87 0.90 0.85 0.87 0.92 0.99 1.09 1.17 1.29 1.43 1.62 1.78
1.22 1.25 1.24 1.18 1.16 1.18 1.19 1.17 1.17 1.17 1.20 1.20 1.21 1.20 1.10 1.06 1.05 1.03 1.03 0.98 0.97 0.93 0.86 0.79 0.76 0.68 0.63 0.65 0.67 0.66 0.65 0.69 0.73 0.76 0.80 0.78 0.81 0.93 1.02 1.14 1.26 1.40 1.53
1.45 1.45 1.37 1.22 1.14 1.10 1.11 1.02 0.97 0.96 0.91 0.94 0.99 1.05 0.98 0.91 0.90 0.85 0.86 0.90 0.90 0.88 0.83 0.78 0.73 0.66 0.63 0.66 0.66 0.63 0.61 0.58 0.60 0.65 0.72 0.74 0.82 0.91 1.00 1.11 1.16 1.24 1.29
1.42 1.39 1.35 1.23 1.20 1.08 1.02 0.91 0.86 0.85 0.81 0.78 0.77 0.83 0.87 0.84 0.80 0.79 0.79 0.75 0.76 0.76 0.70 0.65 0.65 0.64 0.60 0.54 0.52 0.52 0.53 0.55 0.54 0.55 0.59 0.65 0.75 0.86 0.98 1.05 1.14 1.26 1.35
1.49 1.49 1.41 1.26 1.24 1.17 1.07 0.93 0.87 0.84 0.80 0.82 0.81 0.81 0.82 0.76 0.74 0.77 0.76 0.68 0.67 0.62 0.58 0.56 0.55 0.55 0.50 0.45 0.43 0.45 0.44 0.49 0.52 0.54 0.54 0.51 0.57 0.68 0.78 0.85 1.04 1.29 1.46
1.56 1.46 1.34 1.29 1.28 1.23 1.15 1.00 0.90 0.84 0.84 0.93 0.96 0.92 0.89 0.82 0.75 0.75 0.75 0.70 0.69 0.63 0.56 0.57 0.53 0.45 0.34 0.35 0.37 0.38 0.42 0.48 0.54 0.61 0.57 0.47 0.44 0.49 0.55 0.64 0.78 1.01 1.26
1.78 1.69 1.51 1.41 1.43 1.32 1.16 1.05 0.97 0.93 0.94 0.95 0.92 0.94 0.92 0.83 0.74 0.71 0.78 0.75 0.71 0.63 0.57 0.57 0.53 0.45 0.33 0.30 0.31 0.33 0.38 0.48 0.56 0.63 0.64 0.52 0.43 0.52 0.59 0.60 0.63 0.74 0.93
1.82 1.71 1.59 1.52 1.46 1.35 1.23 1.13 1.03 0.96 0.92 0.91 0.87 0.84 0.84 0.83 0.75 0.73 0.73 0.69 0.69 0.69 0.62 0.55 0.54 0.52 0.34 0.31 0.32 0.34 0.43 0.52 0.53 0.53 0.58 0.64 0.67 0.59 0.59 0.64 0.79 0.95 1.04
1.66 1.60 1.53 1.53 1.43 1.30 1.19 1.11 1.03 0.92 0.82 0.81 0.80 0.73 0.69 0.65 0.61 0.59 0.62 0.65 0.68 0.69 0.60 0.52 0.55 0.54 0.41 0.35 0.35 0.37 0.46 0.53 0.50 0.46 0.46 0.51 0.60 0.58 0.63 0.79 1.03 1.23 1.39
1.41 1.37 1.33 1.31 1.31 1.21 1.11 1.07 1.01 0.90 0.74 0.65 0.59 0.57 0.58 0.56 0.57 0.58 0.60 0.57 0.62 0.66 0.56 0.46 0.48 0.44 0.38 0.32 0.33 0.39 0.44 0.52 0.51 0.53 0.52 0.56 0.57 0.60 0.74 0.90 1.20 1.43 1.54
1.29 1.19 1.13 1.11 1.09 1.02 0.92 0.88 0.84 0.73 0.54 0.44 0.43 0.47 0.47 0.47 0.47 0.55 0.58 0.56 0.55 0.59 0.57 0.50 0.46 0.38 0.29 0.26 0.29 0.32 0.36 0.44 0.52 0.55 0.63 0.68 0.69 0.66 0.77 0.95 1.16 1.39 1.45
1.23 1.11 1.02 0.93 0.87 0.80 0.82 0.79 0.66 0.49 0.38 0.38 0.38 0.41 0.40 0.34 0.36 0.49 0.51 0.51 0.56 0.52 0.53 0.57 0.55 0.42 0.32 0.23 0.20 0.21 0.26 0.35 0.52 0.63 0.67 0.68 0.69 0.71 0.85 0.99 1.20 1.41 1.54
1.04 0.91 0.80 0.73 0.67 0.70 0.73 0.65 0.51 0.39 0.33 0.38 0.41 0.39 0.36 0.34 0.34 0.40 0.43 0.42 0.49 0.49 0.45 0.48 0.47 0.39 0.34 0.24 0.15 0.15 0.19 0.26 0.39 0.55 0.71 0.71 0.65 0.80 1.09 1.27 1.39 1.55 1.63
0.85 0.72 0.66 0.65 0.66 0.65 0.56 0.49 0.36 0.34 0.37 0.44 0.43 0.40 0.40 0.39 0.32 0.32 0.29 0.29 0.33 0.36 0.41 0.41 0.40 0.38 0.34 0.24 0.18 0.20 0.23 0.26 0.32 0.45 0.65 0.77 0.81 0.97 1.27 1.49 1.59 1.65 1.59
0.69 0.60 0.60 0.60 0.59 0.52 0.44 0.38 0.33 0.32 0.40 0.41 0.36 0.33 0.33 0.32 0.31 0.25 0.20 0.19 0.20 0.21 0.27 0.31 0.33 0.33 0.28 0.20 0.21 0.23 0.24 0.28 0.33 0.41 0.59 0.79 0.88 1.09 1.32 1.45 1.47 1.43 1.35
0.53 0.49 0.48 0.45 0.42 0.38 0.35 0.31 0.28 0.26 0.33 0.37 0.35 0.30 0.28 0.26 0.22 0.22 0.21 0.16 0.15 0.16 0.18 0.21 0.21 0.22 0.21 0.18 0.17 0.19 0.24 0.31 0.38 0.45 0.68 0.88 0.98 1.13 1.25 1.33 1.30 1.23 1.15